User: anonymous   Login
Location: Whispering Pines Observatory
(39.4020°N, 104.7430°W)
Time: 23:47:36
(UTC-06:00)
Language:

MOS 1 Rocket - Orbit

View from above orbital plane
View from above orbital plane
View from above satellite
View from above satellite

Ground track
Ground track

The orbit data is extracted from the following two-line orbital elements,

1 17528U 87018B   16178.86945157  .00000052  00000-0  21187-4 0  9995
2 17528  97.4059 171.2906 0151756 332.0059  87.2095 14.50664804548367
Epoch (UTC): 26 June 2016 20:52:00
Eccentricity: 0.0151756
inclination: 97.4059°
perigee height: 616 km
apogee height: 831 km
right ascension of ascending node: 171.2906°
argument of perigee: 332.0059°
revolutions per day: 14.50664804
mean anomaly at epoch: 87.2095°
orbit number at epoch: 54836

The dashed part of the orbit path shows where the satellite is in the earth's shadow,  

DLR